TimeMST,TemperatureF,Dew PointF,Humidity,Sea Level PressureIn,VisibilityMPH,Wind Direction,Wind SpeedMPH,Gust SpeedMPH,PrecipitationIn,Events,Conditions,WindDirDegrees,DateUTC
12:15 AM,14.0,8.6,79,30.02,7.0,NW,13.8,-,N/A,Snow,Light Snow,310,2013-01-01 07:15:00
12:35 AM,14.0,8.6,79,30.02,3.0,NW,13.8,-,N/A,Snow,Light Snow,310,2013-01-01 07:35:00
12:55 AM,12.2,10.4,92,30.02,2.0,NW,13.8,-,N/A,Snow,Light Snow,310,2013-01-01 07:55:00
1:15 AM,12.2,10.4,92,30.03,1.2,NW,13.8,-,N/A,Snow,Light Snow,310,2013-01-01 08:15:00
1:35 AM,12.2,10.4,92,30.03,1.5,NW,13.8,-,N/A,Snow,Light Snow,310,2013-01-01 08:35:00
1:55 AM,12.2,10.4,92,30.03,3.0,WNW,13.8,-,N/A,Snow,Light Snow,300,2013-01-01 08:55:00
2:15 AM,14.0,12.2,93,30.04,5.0,WNW,13.8,-,N/A,Snow,Light Snow,290,2013-01-01 09:15:00
2:35 AM,14.0,12.2,93,30.05,5.0,WNW,13.8,-,N/A,Snow,Light Snow,290,2013-01-01 09:35:00
2:55 AM,14.0,12.2,93,30.06,7.0,WNW,12.7,-,N/A,Snow,Light Snow,290,2013-01-01 09:55:00
3:15 AM,14.0,12.2,93,30.06,10.0,WNW,13.8,-,N/A,Snow,Light Snow,300,2013-01-01 10:15:00
3:35 AM,14.0,12.2,93,30.07,5.0,WNW,12.7,-,N/A,Snow,Light Snow,300,2013-01-01 10:35:00
3:55 AM,14.0,12.2,93,30.07,7.0,WNW,13.8,-,N/A,Snow,Light Snow,300,2013-01-01 10:55:00
4:15 AM,15.8,12.2,86,30.07,10.0,WNW,12.7,-,N/A,Snow,Light Snow,290,2013-01-01 11:15:00
4:35 AM,15.8,12.2,86,30.07,10.0,WNW,13.8,-,N/A,Snow,Light Snow,290,2013-01-01 11:35:00
4:55 AM,15.8,12.2,86,30.07,10.0,WNW,12.7,-,N/A,Snow,Light Snow,290,2013-01-01 11:55:00
5:15 AM,17.6,12.2,79,30.07,10.0,NW,12.7,-,N/A,,Overcast,320,2013-01-01 12:15:00
5:35 AM,17.6,12.2,79,30.07,7.0,NNW,12.7,-,N/A,Snow,Light Snow,330,2013-01-01 12:35:00
5:55 AM,17.6,12.2,79,30.08,4.0,WNW,10.4,-,N/A,Snow,Light Snow,290,2013-01-01 12:55:00
6:15 AM,15.8,14.0,93,30.09,3.0,West,8.1,-,N/A,Snow,Light Snow,260,2013-01-01 13:15:00
6:35 AM,15.8,14.0,93,30.10,7.0,West,6.9,-,N/A,Snow,Light Snow,260,2013-01-01 13:35:00
6:55 AM,15.8,14.0,93,30.10,10.0,SW,5.8,-,N/A,Snow,Light Snow,230,2013-01-01 13:55:00
7:15 AM,17.6,14.0,86,30.10,10.0,WSW,5.8,-,N/A,,Overcast,240,2013-01-01 14:15:00
7:35 AM,15.8,12.2,86,30.10,10.0,SW,6.9,-,N/A,,Overcast,230,2013-01-01 14:35:00
7:55 AM,17.6,14.0,86,30.10,10.0,SW,6.9,-,N/A,Snow,Light Snow,230,2013-01-01 14:55:00
8:15 AM,15.8,10.4,79,30.10,10.0,SSW,12.7,-,N/A,,Mostly Cloudy,210,2013-01-01 15:15:00
8:35 AM,15.8,10.4,79,30.10,10.0,SSW,10.4,-,N/A,,Mostly Cloudy,210,2013-01-01 15:35:00
8:55 AM,17.6,12.2,79,30.10,10.0,SSW,12.7,-,N/A,,Scattered Clouds,210,2013-01-01 15:55:00
9:15 AM,17.6,12.2,79,30.10,10.0,SSW,11.5,-,N/A,,Clear,210,2013-01-01 16:15:00
9:35 AM,17.6,12.2,79,30.10,10.0,SSW,12.7,-,N/A,,Clear,200,2013-01-01 16:35:00
9:55 AM,17.6,12.2,79,30.10,10.0,SSW,9.2,-,N/A,,Clear,210,2013-01-01 16:55:00
10:15 AM,17.6,12.2,79,30.10,10.0,SSW,13.8,-,N/A,,Clear,200,2013-01-01 17:15:00
10:35 AM,19.4,12.2,74,30.10,10.0,SSW,11.5,-,N/A,,Clear,200,2013-01-01 17:35:00
10:55 AM,19.4,12.2,74,30.10,10.0,South,9.2,-,N/A,,Clear,190,2013-01-01 17:55:00
11:15 AM,19.4,12.2,74,30.08,10.0,SSE,8.1,-,N/A,,Clear,150,2013-01-01 18:15:00
11:35 AM,17.6,12.2,79,30.07,10.0,SSE,11.5,-,N/A,,Clear,150,2013-01-01 18:35:00
11:55 AM,19.4,10.4,68,30.07,10.0,SSE,9.2,-,N/A,,Clear,150,2013-01-01 18:55:00
12:15 PM,19.4,6.8,58,30.07,10.0,South,11.5,-,N/A,,Clear,180,2013-01-01 19:15:00
12:35 PM,19.4,8.6,63,30.07,10.0,South,8.1,-,N/A,,Clear,180,2013-01-01 19:35:00
12:55 PM,19.4,8.6,63,30.06,10.0,SSE,6.9,-,N/A,,Clear,160,2013-01-01 19:55:00
1:15 PM,19.4,8.6,63,30.06,10.0,SSE,6.9,-,N/A,,Clear,150,2013-01-01 20:15:00
1:35 PM,19.4,8.6,63,30.04,10.0,SSE,6.9,-,N/A,,Clear,150,2013-01-01 20:35:00
1:55 PM,17.6,8.6,68,30.03,10.0,SSE,8.1,-,N/A,,Clear,150,2013-01-01 20:55:00
2:15 PM,19.4,8.6,63,30.02,10.0,South,16.1,21.9,N/A,,Clear,190,2013-01-01 21:15:00
2:35 PM,19.4,6.8,58,30.03,10.0,South,11.5,-,N/A,,Clear,170,2013-01-01 21:35:00
2:55 PM,21.2,6.8,54,30.04,10.0,SSE,6.9,-,N/A,,Clear,160,2013-01-01 21:55:00
3:15 PM,21.2,6.8,54,30.05,10.0,Calm,Calm,-,N/A,,Mostly Cloudy,0,2013-01-01 22:15:00
3:35 PM,23.0,3.2,43,30.05,10.0,NNW,5.8,-,N/A,,Overcast,330,2013-01-01 22:35:00
3:55 PM,21.2,5.0,50,30.07,10.0,NW,11.5,-,N/A,,Overcast,320,2013-01-01 22:55:00
4:15 PM,17.6,10.4,73,30.07,10.0,NNW,17.3,-,N/A,,Overcast,330,2013-01-01 23:15:00
4:35 PM,14.0,12.2,93,30.08,4.0,NW,26.5,-,N/A,Snow,Light Snow,320,2013-01-01 23:35:00
4:55 PM,14.0,12.2,93,30.08,0.2,NW,26.5,-,N/A,Snow,Heavy Snow,320,2013-01-01 23:55:00
5:15 PM,14.0,12.2,93,30.08,0.2,NW,24.2,-,N/A,Snow,Light Snow,320,2013-01-02 00:15:00
5:35 PM,15.8,14.0,93,30.10,2.5,NW,26.5,-,N/A,Snow,Light Snow,310,2013-01-02 00:35:00
5:55 PM,15.8,14.0,93,30.11,1.5,NW,25.3,-,N/A,Snow,Light Snow,310,2013-01-02 00:55:00
6:15 PM,15.8,14.0,93,30.12,0.5,NW,23.0,-,N/A,Snow,Snow,310,2013-01-02 01:15:00
6:35 PM,15.8,14.0,93,30.12,0.2,NW,25.3,-,N/A,Snow,Heavy Snow,310,2013-01-02 01:35:00
6:55 PM,15.8,14.0,93,30.12,-9999.0,NW,27.6,32.2,N/A,,Overcast,310,2013-01-02 01:55:00
7:15 PM,17.6,14.0,86,30.12,-9999.0,NW,29.9,-,N/A,,Overcast,310,2013-01-02 02:15:00
7:35 PM,15.8,14.0,93,30.13,-9999.0,NW,28.8,38.0,N/A,,Overcast,310,2013-01-02 02:35:00
8:15 PM,15.8,14.0,93,30.13,-9999.0,WNW,35.7,-,N/A,,Overcast,300,2013-01-02 03:15:00
8:35 PM,14.0,12.2,93,30.14,-9999.0,NW,29.9,-,N/A,,Unknown,310,2013-01-02 03:35:00
8:55 PM,14.0,12.2,93,30.15,10.0,NW,27.6,38.0,N/A,,Overcast,310,2013-01-02 03:55:00
9:15 PM,12.2,10.4,92,30.15,10.0,NW,28.8,-,N/A,,Scattered Clouds,310,2013-01-02 04:15:00
9:35 PM,14.0,10.4,86,30.16,10.0,NW,26.5,-,N/A,,Scattered Clouds,310,2013-01-02 04:35:00
9:55 PM,14.0,10.4,86,30.16,10.0,NW,27.6,-,N/A,,Clear,310,2013-01-02 04:55:00
10:15 PM,12.2,10.4,92,30.16,10.0,NW,25.3,-,N/A,,Mostly Cloudy,310,2013-01-02 05:15:00
10:35 PM,14.0,10.4,86,30.16,10.0,NW,25.3,-,N/A,,Overcast,310,2013-01-02 05:35:00
10:55 PM,12.2,10.4,92,30.16,10.0,NW,25.3,-,N/A,,Mostly Cloudy,310,2013-01-02 05:55:00
11:15 PM,12.2,10.4,92,30.17,10.0,WNW,23.0,-,N/A,,Scattered Clouds,300,2013-01-02 06:15:00
11:35 PM,14.0,10.4,86,30.18,10.0,NW,20.7,-,N/A,,Overcast,310,2013-01-02 06:35:00
11:55 PM,14.0,10.4,86,30.18,10.0,WNW,18.4,-,N/A,,Mostly Cloudy,300,2013-01-02 06:55:00